,,PA_Meas_PMT16A,,PR_Meas_QMR101_102,,RH_Meas_QMH101,,SR_Meas_QMS101,,TA_Meas_QMH101,,GenWind,,GenWind,
time,status,PA,status,PR,status,RH,status,SR,status,TA,status,DirAvg,status,SpdAvg,
2013-11-04, 00:00:05,VALID,918.694,VALID,0,VALID,97.3053,VALID,0,VALID,19.8198,VALID,150,VALID,0,
2013-11-04, 00:01:05,VALID,918.681,VALID,0,VALID,97.2977,VALID,0,VALID,19.8198,VALID,150,VALID,0,
2013-11-04, 00:02:05,VALID,918.656,VALID,0,VALID,97.2977,VALID,0,VALID,19.8198,VALID,150,VALID,0,
2013-11-04, 00:03:05,VALID,918.64,VALID,0,VALID,97.29,VALID,0,VALID,19.8198,VALID,150,VALID,0,
2013-11-04, 00:04:05,VALID,918.674,VALID,0,VALID,97.2824,VALID,0,VALID,19.8393,VALID,150,VALID,0,
2013-11-04, 00:05:05,VALID,918.66,VALID,0,VALID,97.2977,VALID,0,VALID,19.8198,VALID,150,VALID,0,
2013-11-04, 00:06:05,VALID,918.637,VALID,0,VALID,97.2977,VALID,0,VALID,19.8393,VALID,150,VALID,0,
2013-11-04, 00:07:05,VALID,918.614,VALID,0,VALID,97.2977,VALID,0,VALID,19.8393,VALID,150,VALID,0,
2013-11-04, 00:08:05,VALID,918.64,VALID,0,VALID,97.29,VALID,0.107441,VALID,19.8588,VALID,150,VALID,0,
2013-11-04, 00:09:05,VALID,918.617,VALID,0,VALID,97.2977,VALID,0,VALID,19.8588,VALID,150,VALID,0,
2013-11-04, 00:10:05,VALID,918.594,VALID,0,VALID,97.2824,VALID,0,VALID,19.8588,VALID,150,VALID,0,
2013-11-04, 00:11:05,VALID,918.562,VALID,0,VALID,97.29,VALID,0,VALID,19.8393,VALID,150,VALID,0,
2013-11-04, 00:12:05,VALID,918.566,VALID,0,VALID,97.2977,VALID,0,VALID,19.8393,VALID,150,VALID,0,
2013-11-04, 00:13:05,VALID,918.539,VALID,0,VALID,97.2977,VALID,0,VALID,19.8603,VALID,150,VALID,0,
2013-11-04, 00:14:05,VALID,918.556,VALID,0,VALID,97.29,VALID,0.107441,VALID,19.8408,VALID,150,VALID,0,
2013-11-04, 00:15:05,VALID,918.541,VALID,0,VALID,97.2977,VALID,0,VALID,19.8393,VALID,150,VALID,0,
2013-11-04, 00:16:05,VALID,918.511,VALID,0,VALID,97.3053,VALID,0,VALID,19.8393,VALID,150,VALID,0,
2013-11-04, 00:17:05,VALID,918.518,VALID,0,VALID,97.29,VALID,0,VALID,19.8408,VALID,150,VALID,0,
2013-11-04, 00:18:05,VALID,918.507,VALID,0,VALID,97.3053,VALID,0,VALID,19.8198,VALID,150,VALID,0,
2013-11-04, 00:19:05,VALID,918.474,VALID,0,VALID,97.2824,VALID,0,VALID,19.8603,VALID,150,VALID,0,
2013-11-04, 00:20:05,VALID,918.447,VALID,0,VALID,97.29,VALID,0,VALID,19.8393,VALID,150,VALID,0,
2013-11-04, 00:21:05,VALID,918.437,VALID,0,VALID,97.29,VALID,0,VALID,19.8603,VALID,150,VALID,0,
2013-11-04, 00:22:05,VALID,918.393,VALID,0,VALID,97.2977,VALID,0,VALID,19.8198,VALID,150,VALID,0,
2013-11-04, 00:23:05,VALID,918.42,VALID,0,VALID,97.3129,VALID,0,VALID,19.8393,VALID,150,VALID,0,
2013-11-04, 00:24:05,VALID,918.368,VALID,0,VALID,97.2977,VALID,0,VALID,19.8603,VALID,150,VALID,0,
2013-11-04, 00:25:05,VALID,918.393,VALID,0,VALID,97.2824,VALID,0,VALID,19.8393,VALID,150,VALID,0,
2013-11-04, 00:26:05,VALID,918.372,VALID,0,VALID,97.2977,VALID,0,VALID,19.8603,VALID,150,VALID,0,
2013-11-04, 00:27:05,VALID,918.368,VALID,0,VALID,97.3053,VALID,0,VALID,19.8408,VALID,150,VALID,0,
2013-11-04, 00:28:05,VALID,918.377,VALID,0,VALID,97.2977,VALID,0,VALID,19.8603,VALID,149,VALID,0,
2013-11-04, 00:29:05,VALID,918.342,VALID,0,VALID,97.29,VALID,0,VALID,19.8393,VALID,150,VALID,0,
2013-11-04, 00:30:05,VALID,918.327,VALID,0,VALID,97.29,VALID,0,VALID,19.8588,VALID,149,VALID,0,
2013-11-04, 00:31:05,VALID,918.344,VALID,0,VALID,97.3053,VALID,0,VALID,19.8798,VALID,149,VALID,0,
2013-11-04, 00:32:05,VALID,918.314,VALID,0,VALID,97.3053,VALID,0,VALID,19.8588,VALID,149,VALID,0,
2013-11-04, 00:33:05,VALID,918.316,VALID,0,VALID,97.3053,VALID,0,VALID,19.8393,VALID,150,VALID,0,
2013-11-04, 00:34:05,VALID,918.339,VALID,0,VALID,97.3053,VALID,0,VALID,19.8798,VALID,150,VALID,0,
2013-11-04, 00:35:05,VALID,918.319,VALID,0,VALID,97.2977,VALID,0,VALID,19.8393,VALID,150,VALID,0,
2013-11-04, 00:36:04,VALID,918.302,VALID,0,VALID,97.2977,VALID,0,VALID,19.8588,VALID,150,VALID,0,
2013-11-04, 00:37:04,VALID,918.301,VALID,0,VALID,97.29,VALID,0,VALID,19.8393,VALID,150,VALID,0,
2013-11-04, 00:38:04,VALID,918.28,VALID,0,VALID,97.29,VALID,0,VALID,19.8798,VALID,149,VALID,0,
2013-11-04, 00:39:04,VALID,918.247,VALID,0,VALID,97.29,VALID,0,VALID,19.8588,VALID,150,VALID,0,
2013-11-04, 00:40:04,VALID,918.254,VALID,0,VALID,97.29,VALID,0,VALID,19.8393,VALID,149,VALID,0,
2013-11-04, 00:41:04,VALID,918.22,VALID,0,VALID,97.3129,VALID,0,VALID,19.8588,VALID,149,VALID,0,
2013-11-04, 00:42:04,VALID,918.199,VALID,0,VALID,97.2977,VALID,0,VALID,19.8603,VALID,150,VALID,0,
2013-11-04, 00:43:04,VALID,918.179,VALID,0,VALID,97.29,VALID,0,VALID,19.8393,VALID,150,VALID,0,
2013-11-04, 00:44:04,VALID,918.168,VALID,0,VALID,97.3129,VALID,0,VALID,19.8183,VALID,150,VALID,0,
2013-11-04, 00:45:04,VALID,918.118,VALID,0,VALID,97.3053,VALID,0,VALID,19.8198,VALID,150,VALID,0,
2013-11-04, 00:46:04,VALID,918.08,VALID,0,VALID,97.3205,VALID,0,VALID,19.8198,VALID,149,VALID,0,
2013-11-04, 00:47:04,VALID,918.076,VALID,0,VALID,97.3129,VALID,0,VALID,19.8198,VALID,150,VALID,0,
2013-11-04, 00:48:04,VALID,918.037,VALID,0,VALID,97.3205,VALID,0,VALID,19.8198,VALID,150,VALID,0,
2013-11-04, 00:49:04,VALID,918.016,VALID,0,VALID,97.2977,VALID,0,VALID,19.8198,VALID,150,VALID,0,
2013-11-04, 00:50:04,VALID,918.013,VALID,0,VALID,97.29,VALID,0,VALID,19.8003,VALID,150,VALID,0,
2013-11-04, 00:51:04,VALID,917.998,VALID,0,VALID,97.3358,VALID,0,VALID,19.8003,VALID,149,VALID,0,
2013-11-04, 00:52:04,VALID,917.987,VALID,0,VALID,97.3205,VALID,0,VALID,19.8003,VALID,146,VALID,0,
2013-11-04, 00:53:04,VALID,917.976,VALID,0,VALID,97.2977,VALID,0,VALID,19.7808,VALID,145,VALID,0,
2013-11-04, 00:54:04,VALID,917.978,VALID,0,VALID,97.3129,VALID,0,VALID,19.7808,VALID,145,VALID,0,
2013-11-04, 00:55:04,VALID,917.93,VALID,0,VALID,97.3358,VALID,0,VALID,19.8003,VALID,145,VALID,0,
2013-11-04, 00:56:04,VALID,917.933,VALID,0,VALID,97.3205,VALID,0,VALID,19.7808,VALID,145,VALID,0,
2013-11-04, 00:57:04,VALID,917.909,VALID,0,VALID,97.3358,VALID,0,VALID,19.8003,VALID,145,VALID,0,
2013-11-04, 00:58:04,VALID,917.901,VALID,0,VALID,97.3129,VALID,0,VALID,19.8018,VALID,145,VALID,0,
2013-11-04, 00:59:04,VALID,917.889,VALID,0,VALID,97.3053,VALID,0,VALID,19.8018,VALID,145,VALID,0,
2013-11-04, 01:00:04,VALID,917.867,VALID,0,VALID,97.3205,VALID,0,VALID,19.8018,VALID,145,VALID,0,
2013-11-04, 01:01:04,VALID,917.883,VALID,0,VALID,97.3053,VALID,0,VALID,19.7808,VALID,145,VALID,0,
2013-11-04, 01:02:04,VALID,917.877,VALID,0,VALID,97.3281,VALID,0,VALID,19.7823,VALID,145,VALID,0,
2013-11-04, 01:03:04,VALID,917.868,VALID,0,VALID,97.3281,VALID,0,VALID,19.7613,VALID,145,VALID,0,
2013-11-04, 01:04:04,VALID,917.805,VALID,0,VALID,97.3281,VALID,0,VALID,19.7613,VALID,144,VALID,0,
2013-11-04, 01:05:04,VALID,917.796,VALID,0,VALID,97.3205,VALID,0,VALID,19.7613,VALID,133,VALID,0,
2013-11-04, 01:06:04,VALID,917.806,VALID,0,VALID,97.3281,VALID,0,VALID,19.7613,VALID,140,VALID,0,
2013-11-04, 01:07:04,VALID,917.797,VALID,0,VALID,97.3205,VALID,0,VALID,19.7418,VALID,136,VALID,0,
2013-11-04, 01:08:04,VALID,917.813,VALID,0,VALID,97.3358,VALID,0,VALID,19.7628,VALID,136,VALID,0,
2013-11-04, 01:09:04,VALID,917.756,VALID,0,VALID,97.3281,VALID,0,VALID,19.7628,VALID,147,VALID,0,
2013-11-04, 01:10:04,VALID,917.765,VALID,0,VALID,97.3205,VALID,0,VALID,19.7418,VALID,145,VALID,0,
2013-11-04, 01:11:04,VALID,917.732,VALID,0,VALID,97.3205,VALID,0,VALID,19.7628,VALID,138,VALID,0,
2013-11-04, 01:12:04,VALID,917.708,VALID,0,VALID,97.3358,VALID,0,VALID,19.7028,VALID,140,VALID,0,
2013-11-04, 01:13:04,VALID,917.691,VALID,0,VALID,97.3434,VALID,0,VALID,19.7238,VALID,125,VALID,0,
2013-11-04, 01:14:04,VALID,917.666,VALID,0,VALID,97.3358,VALID,0,VALID,19.7418,VALID,136,VALID,0,
2013-11-04, 01:15:04,VALID,917.619,VALID,0,VALID,97.3358,VALID,0.107441,VALID,19.7223,VALID,140,VALID,0,
2013-11-04, 01:16:04,VALID,917.617,VALID,0,VALID,97.3358,VALID,0,VALID,19.7028,VALID,141,VALID,0,
2013-11-04, 01:17:04,VALID,917.603,VALID,0,VALID,97.3586,VALID,0,VALID,19.6833,VALID,137,VALID,0,
2013-11-04, 01:18:04,VALID,917.53,VALID,0,VALID,97.3663,VALID,0,VALID,19.6833,VALID,138,VALID,0,
2013-11-04, 01:19:04,VALID,917.536,VALID,0,VALID,97.3358,VALID,0,VALID,19.6848,VALID,125,VALID,0,
2013-11-04, 01:20:04,VALID,917.5,VALID,0,VALID,97.3434,VALID,0,VALID,19.6443,VALID,120,VALID,0,
2013-11-04, 01:21:04,VALID,917.481,VALID,0,VALID,97.3739,VALID,0,VALID,19.6653,VALID,132,VALID,0,
2013-11-04, 01:22:04,VALID,917.455,VALID,0,VALID,97.3434,VALID,0,VALID,19.6653,VALID,133,VALID,0,
2013-11-04, 01:23:04,VALID,917.451,VALID,0,VALID,97.3434,VALID,0,VALID,19.6653,VALID,128,VALID,0,
2013-11-04, 01:24:04,VALID,917.439,VALID,0,VALID,97.3586,VALID,0,VALID,19.6653,VALID,134,VALID,0,
2013-11-04, 01:25:04,VALID,917.423,VALID,0,VALID,97.351,VALID,0,VALID,19.6443,VALID,151,VALID,0,
2013-11-04, 01:26:04,VALID,917.393,VALID,0,VALID,97.3586,VALID,0,VALID,19.6848,VALID,150,VALID,0,
2013-11-04, 01:27:04,VALID,917.411,VALID,0,VALID,97.351,VALID,0,VALID,19.6653,VALID,144,VALID,0,
2013-11-04, 01:28:04,VALID,917.367,VALID,0,VALID,97.351,VALID,0,VALID,19.6653,VALID,137,VALID,0,
2013-11-04, 01:29:04,VALID,917.347,VALID,0,VALID,97.3434,VALID,0,VALID,19.6653,VALID,140,VALID,0,
2013-11-04, 01:30:04,VALID,917.347,VALID,0,VALID,97.3663,VALID,0,VALID,19.6443,VALID,139,VALID,0,
2013-11-04, 01:31:04,VALID,917.329,VALID,0,VALID,97.351,VALID,0,VALID,19.6653,VALID,149,VALID,0,
2013-11-04, 01:32:04,VALID,917.292,VALID,0,VALID,97.3586,VALID,0,VALID,19.6443,VALID,151,VALID,0,
2013-11-04, 01:33:04,VALID,917.311,VALID,0,VALID,97.3586,VALID,0,VALID,19.6443,VALID,161,VALID,0,
2013-11-04, 01:34:04,VALID,917.307,VALID,0,VALID,97.3434,VALID,0,VALID,19.6653,VALID,160,VALID,0,
2013-11-04, 01:35:04,VALID,917.297,VALID,0,VALID,97.3586,VALID,0,VALID,19.6653,VALID,165,VALID,0,
2013-11-04, 01:36:04,VALID,917.267,VALID,0,VALID,97.3663,VALID,0,VALID,19.6443,VALID,176,VALID,0,
2013-11-04, 01:37:04,VALID,917.285,VALID,0,VALID,97.3586,VALID,0,VALID,19.6653,VALID,168,VALID,0,
2013-11-04, 01:38:04,VALID,917.289,VALID,0,VALID,97.351,VALID,0,VALID,19.6638,VALID,147,VALID,0,
2013-11-04, 01:39:04,VALID,917.27,VALID,0,VALID,97.3663,VALID,0,VALID,19.6638,VALID,154,VALID,0,
2013-11-04, 01:40:04,VALID,917.282,VALID,0,VALID,97.3586,VALID,0,VALID,19.6638,VALID,146,VALID,0,
2013-11-04, 01:41:04,VALID,917.28,VALID,0,VALID,97.3586,VALID,0,VALID,19.6443,VALID,148,VALID,0,
2013-11-04, 01:42:04,VALID,917.295,VALID,0,VALID,97.3586,VALID,0,VALID,19.6443,VALID,146,VALID,0,
2013-11-04, 01:43:04,VALID,917.258,VALID,0,VALID,97.351,VALID,0,VALID,19.6638,VALID,145,VALID,0,
2013-11-04, 01:44:04,VALID,917.244,VALID,0,VALID,97.3434,VALID,0,VALID,19.6638,VALID,146,VALID,0,
2013-11-04, 01:45:04,VALID,917.241,VALID,0,VALID,97.3586,VALID,0,VALID,19.6443,VALID,171,VALID,0,
2013-11-04, 01:46:04,VALID,917.233,VALID,0,VALID,97.3586,VALID,0,VALID,19.6638,VALID,170,VALID,0,
2013-11-04, 01:47:04,VALID,917.218,VALID,0,VALID,97.351,VALID,0,VALID,19.6638,VALID,156,VALID,0,
2013-11-04, 01:48:04,VALID,917.221,VALID,0,VALID,97.3739,VALID,0,VALID,19.6443,VALID,146,VALID,0,
2013-11-04, 01:49:04,VALID,917.176,VALID,0,VALID,97.3663,VALID,0,VALID,19.6443,VALID,146,VALID,0,
2013-11-04, 01:50:04,VALID,917.2,VALID,0,VALID,97.3739,VALID,0,VALID,19.6443,VALID,146,VALID,0,
2013-11-04, 01:51:04,VALID,917.122,VALID,0,VALID,97.3663,VALID,0,VALID,19.6458,VALID,132,VALID,0,
2013-11-04, 01:52:04,VALID,917.151,VALID,0,VALID,97.3739,VALID,0,VALID,19.6053,VALID,88,VALID,0,
2013-11-04, 01:53:04,VALID,917.142,VALID,0,VALID,97.3815,VALID,0,VALID,19.5858,VALID,89,VALID,0,
2013-11-04, 01:54:04,VALID,917.124,VALID,0,VALID,97.3663,VALID,0,VALID,19.5858,VALID,50,VALID,0,
2013-11-04, 01:55:04,VALID,917.127,VALID,0,VALID,97.3815,VALID,0,VALID,19.5858,VALID,50,VALID,0,
2013-11-04, 01:56:04,VALID,917.086,VALID,0,VALID,97.3815,VALID,0,VALID,19.5873,VALID,50,VALID,0,
2013-11-04, 01:57:04,VALID,917.104,VALID,0,VALID,97.3815,VALID,0,VALID,19.5468,VALID,50,VALID,0,
2013-11-04, 01:58:04,VALID,917.087,VALID,0,VALID,97.3739,VALID,0,VALID,19.5663,VALID,50,VALID,0,
2013-11-04, 01:59:04,VALID,917.083,VALID,0,VALID,97.3815,VALID,0.107441,VALID,19.5453,VALID,65,VALID,0,
2013-11-04, 02:00:04,VALID,917.058,VALID,0,VALID,97.3891,VALID,0,VALID,19.5858,VALID,66,VALID,0,
2013-11-04, 02:01:04,VALID,917.082,VALID,0,VALID,97.3891,VALID,0,VALID,19.5858,VALID,66,VALID,0,
2013-11-04, 02:02:04,VALID,917.054,VALID,0,VALID,97.3739,VALID,0,VALID,19.5663,VALID,67,VALID,0,
2013-11-04, 02:03:04,VALID,917.07,VALID,0,VALID,97.3815,VALID,0,VALID,19.5858,VALID,69,VALID,0,
2013-11-04, 02:04:04,VALID,917.083,VALID,0,VALID,97.3586,VALID,0,VALID,19.5858,VALID,138,VALID,0,
2013-11-04, 02:05:04,VALID,917.062,VALID,0,VALID,97.3739,VALID,0,VALID,19.5858,VALID,138,VALID,0,
2013-11-04, 02:06:04,VALID,917.048,VALID,0,VALID,97.3891,VALID,0.107441,VALID,19.6053,VALID,138,VALID,0,
2013-11-04, 02:07:04,VALID,917.021,VALID,0,VALID,97.3663,VALID,0,VALID,19.6068,VALID,138,VALID,0,
2013-11-04, 02:08:04,VALID,917.031,VALID,0,VALID,97.3739,VALID,0,VALID,19.6053,VALID,159,VALID,0,
2013-11-04, 02:09:04,VALID,917.021,VALID,0,VALID,97.3663,VALID,0,VALID,19.6053,VALID,160,VALID,0,
2013-11-04, 02:10:04,VALID,917.02,VALID,0,VALID,97.3815,VALID,0,VALID,19.6053,VALID,166,VALID,0,
2013-11-04, 02:11:04,VALID,917.023,VALID,0,VALID,97.3663,VALID,0.107441,VALID,19.6443,VALID,142,VALID,0,
2013-11-04, 02:12:04,VALID,916.987,VALID,0,VALID,97.3663,VALID,0,VALID,19.6248,VALID,146,VALID,0,
2013-11-04, 02:13:04,VALID,916.971,VALID,0,VALID,97.3586,VALID,0,VALID,19.6443,VALID,137,VALID,0,
2013-11-04, 02:14:04,VALID,916.982,VALID,0,VALID,97.3663,VALID,0,VALID,19.6653,VALID,139,VALID,0,
2013-11-04, 02:15:04,VALID,916.972,VALID,0,VALID,97.3663,VALID,0,VALID,19.6443,VALID,132,VALID,0,
2013-11-04, 02:16:04,VALID,916.918,VALID,0,VALID,97.3586,VALID,0,VALID,19.6458,VALID,128,VALID,0,
2013-11-04, 02:17:04,VALID,916.951,VALID,0,VALID,97.3586,VALID,0,VALID,19.6443,VALID,127,VALID,0,
2013-11-04, 02:18:04,VALID,916.897,VALID,0,VALID,97.3739,VALID,0,VALID,19.6638,VALID,133,VALID,0,
2013-11-04, 02:19:04,VALID,916.88,VALID,0,VALID,97.351,VALID,0,VALID,19.6443,VALID,138,VALID,0,
2013-11-04, 02:20:04,VALID,916.876,VALID,0,VALID,97.3815,VALID,0,VALID,19.6638,VALID,129,VALID,0,
2013-11-04, 02:21:04,VALID,916.817,VALID,0,VALID,97.351,VALID,0,VALID,19.6848,VALID,151,VALID,0,
2013-11-04, 02:22:04,VALID,916.837,VALID,0,VALID,97.3739,VALID,0,VALID,19.6638,VALID,145,VALID,0,
2013-11-04, 02:23:04,VALID,916.805,VALID,0,VALID,97.351,VALID,0,VALID,19.6833,VALID,138,VALID,0,
2013-11-04, 02:24:04,VALID,916.801,VALID,0,VALID,97.351,VALID,0,VALID,19.6638,VALID,145,VALID,0,
2013-11-04, 02:25:04,VALID,916.761,VALID,0,VALID,97.351,VALID,0,VALID,19.6638,VALID,143,VALID,0,
2013-11-04, 02:26:04,VALID,916.752,VALID,0,VALID,97.3434,VALID,0,VALID,19.7043,VALID,138,VALID,0,
2013-11-04, 02:27:04,VALID,916.75,VALID,0,VALID,97.3739,VALID,0,VALID,19.6848,VALID,147,VALID,0,
2013-11-04, 02:28:04,VALID,916.719,VALID,0,VALID,97.351,VALID,0,VALID,19.7043,VALID,145,VALID,0,
2013-11-04, 02:29:04,VALID,916.709,VALID,0,VALID,97.351,VALID,0,VALID,19.7043,VALID,136,VALID,0,
2013-11-04, 02:30:04,VALID,916.675,VALID,0,VALID,97.351,VALID,0,VALID,19.7043,VALID,142,VALID,0,
2013-11-04, 02:31:04,VALID,916.671,VALID,0,VALID,97.3586,VALID,0,VALID,19.6833,VALID,140,VALID,0,
2013-11-04, 02:32:04,VALID,916.665,VALID,0,VALID,97.3434,VALID,0,VALID,19.6833,VALID,142,VALID,0,
2013-11-04, 02:33:04,VALID,916.635,VALID,0,VALID,97.3434,VALID,0,VALID,19.7028,VALID,143,VALID,0,
2013-11-04, 02:34:04,VALID,916.635,VALID,0,VALID,97.3663,VALID,0.107441,VALID,19.7028,VALID,142,VALID,0,
2013-11-04, 02:35:04,VALID,916.64,VALID,0,VALID,97.3434,VALID,0,VALID,19.6833,VALID,140,VALID,0,
2013-11-04, 02:36:04,VALID,916.627,VALID,0,VALID,97.3663,VALID,0.107441,VALID,19.6638,VALID,140,VALID,0,
2013-11-04, 02:37:04,VALID,916.605,VALID,0,VALID,97.3586,VALID,0,VALID,19.6638,VALID,140,VALID,0,
2013-11-04, 02:38:04,VALID,916.62,VALID,0,VALID,97.351,VALID,0,VALID,19.6638,VALID,140,VALID,0,
2013-11-04, 02:39:04,VALID,916.632,VALID,0,VALID,97.351,VALID,0.107441,VALID,19.6638,VALID,140,VALID,0,
2013-11-04, 02:40:04,VALID,916.599,VALID,0,VALID,97.3434,VALID,0,VALID,19.6443,VALID,140,VALID,0,
2013-11-04, 02:41:04,VALID,916.613,VALID,0,VALID,97.3434,VALID,0.107441,VALID,19.6653,VALID,140,VALID,0,
2013-11-04, 02:42:04,VALID,916.551,VALID,0,VALID,97.3434,VALID,0,VALID,19.6263,VALID,140,VALID,0,
2013-11-04, 02:43:04,VALID,916.584,VALID,0,VALID,97.3663,VALID,0.107441,VALID,19.6053,VALID,140,VALID,0,
2013-11-04, 02:44:04,VALID,916.586,VALID,0,VALID,97.351,VALID,0,VALID,19.6053,VALID,140,VALID,0,
2013-11-04, 02:45:04,VALID,916.544,VALID,0,VALID,97.3663,VALID,0,VALID,19.6053,VALID,140,VALID,0,
2013-11-04, 02:46:04,VALID,916.572,VALID,0,VALID,97.3358,VALID,0,VALID,19.5858,VALID,140,VALID,0,
2013-11-04, 02:47:04,VALID,916.524,VALID,0,VALID,97.3663,VALID,0,VALID,19.6068,VALID,140,VALID,0,
2013-11-04, 02:48:04,VALID,916.525,VALID,0,VALID,97.3586,VALID,0,VALID,19.5663,VALID,140,VALID,0,
2013-11-04, 02:49:04,VALID,916.503,VALID,0,VALID,97.3663,VALID,0,VALID,19.5678,VALID,140,VALID,0,
2013-11-04, 02:50:04,VALID,916.509,VALID,0,VALID,97.3739,VALID,0,VALID,19.5468,VALID,140,VALID,0,
2013-11-04, 02:51:04,VALID,916.562,VALID,0,VALID,97.3663,VALID,0,VALID,19.5483,VALID,140,VALID,0,
2013-11-04, 02:52:04,VALID,916.533,VALID,0,VALID,97.3815,VALID,0,VALID,19.5273,VALID,140,VALID,0,
2013-11-04, 02:53:04,VALID,916.562,VALID,0,VALID,97.3891,VALID,0,VALID,19.5093,VALID,140,VALID,0,
2013-11-04, 02:54:04,VALID,916.554,VALID,0,VALID,97.351,VALID,0,VALID,19.4688,VALID,140,VALID,0,
2013-11-04, 02:55:04,VALID,916.569,VALID,0,VALID,97.3739,VALID,0,VALID,19.4493,VALID,140,VALID,0,
2013-11-04, 02:56:04,VALID,916.584,VALID,0,VALID,97.3815,VALID,0,VALID,19.4493,VALID,140,VALID,0,
2013-11-04, 02:57:04,VALID,916.602,VALID,0,VALID,97.3815,VALID,0,VALID,19.4898,VALID,140,VALID,0,
2013-11-04, 02:58:04,VALID,916.568,VALID,0,VALID,97.3739,VALID,0,VALID,19.4688,VALID,140,VALID,0,
2013-11-04, 02:59:04,VALID,916.553,VALID,0,VALID,97.3968,VALID,0,VALID,19.4898,VALID,140,VALID,0,
2013-11-04, 03:00:04,VALID,916.567,VALID,0,VALID,97.3891,VALID,0,VALID,19.4493,VALID,140,VALID,0,
2013-11-04, 03:01:04,VALID,916.554,VALID,0,VALID,97.3891,VALID,0,VALID,19.4313,VALID,140,VALID,0,
2013-11-04, 03:02:04,VALID,916.545,VALID,0,VALID,97.3815,VALID,0,VALID,19.4118,VALID,140,VALID,0,
2013-11-04, 03:03:04,VALID,916.546,VALID,0,VALID,97.3891,VALID,0,VALID,19.3908,VALID,140,VALID,0,
2013-11-04, 03:04:04,VALID,916.5,VALID,0,VALID,97.3739,VALID,0,VALID,19.4103,VALID,140,VALID,0,
2013-11-04, 03:05:04,VALID,916.494,VALID,0,VALID,97.3891,VALID,0,VALID,19.4103,VALID,140,VALID,0,
2013-11-04, 03:06:04,VALID,916.491,VALID,0,VALID,97.3815,VALID,0,VALID,19.4103,VALID,140,VALID,0,
2013-11-04, 03:07:04,VALID,916.478,VALID,0,VALID,97.4044,VALID,0,VALID,19.4298,VALID,140,VALID,0,
2013-11-04, 03:08:04,VALID,916.44,VALID,0,VALID,97.3663,VALID,0.107441,VALID,19.4688,VALID,140,VALID,0,
2013-11-04, 03:09:04,VALID,916.443,VALID,0,VALID,97.3739,VALID,0.107441,VALID,19.4688,VALID,140,VALID,0,
2013-11-04, 03:10:04,VALID,916.429,VALID,0,VALID,97.3663,VALID,0.214882,VALID,19.4673,VALID,140,VALID,0,
2013-11-04, 03:11:04,VALID,916.389,VALID,0,VALID,97.3815,VALID,0.107441,VALID,19.4883,VALID,140,VALID,0,
2013-11-04, 03:12:04,VALID,916.389,VALID,0,VALID,97.3739,VALID,0,VALID,19.4883,VALID,140,VALID,0,
2013-11-04, 03:13:04,VALID,916.368,VALID,0,VALID,97.3586,VALID,0.107441,VALID,19.4883,VALID,140,VALID,0,
2013-11-04, 03:14:04,VALID,916.375,VALID,0,VALID,97.3891,VALID,0,VALID,19.4883,VALID,140,VALID,0,
2013-11-04, 03:15:04,VALID,916.349,VALID,0,VALID,97.3739,VALID,0.107441,VALID,19.4883,VALID,140,VALID,0,
2013-11-04, 03:16:04,VALID,916.336,VALID,0,VALID,97.3815,VALID,0.107441,VALID,19.4688,VALID,140,VALID,0,
2013-11-04, 03:17:04,VALID,916.378,VALID,0,VALID,97.3891,VALID,0.107441,VALID,19.4478,VALID,140,VALID,0,
2013-11-04, 03:18:04,VALID,916.332,VALID,0,VALID,97.3739,VALID,0.107441,VALID,19.4688,VALID,140,VALID,0,
2013-11-04, 03:19:04,VALID,916.332,VALID,0,VALID,97.3968,VALID,0.107441,VALID,19.4688,VALID,140,VALID,0,
2013-11-04, 03:20:04,VALID,916.315,VALID,0,VALID,97.3815,VALID,0.107441,VALID,19.4478,VALID,140,VALID,0,
2013-11-04, 03:21:04,VALID,916.303,VALID,0,VALID,97.3815,VALID,0.107441,VALID,19.4673,VALID,140,VALID,0,
2013-11-04, 03:22:04,VALID,916.301,VALID,0,VALID,97.3815,VALID,0.107441,VALID,19.4673,VALID,140,VALID,0,
2013-11-04, 03:23:04,VALID,916.288,VALID,0,VALID,97.3891,VALID,0,VALID,19.4898,VALID,140,VALID,0,
2013-11-04, 03:24:04,VALID,916.283,VALID,0,VALID,97.3739,VALID,0,VALID,19.4688,VALID,140,VALID,0,
2013-11-04, 03:25:04,VALID,916.27,VALID,0,VALID,97.3891,VALID,0,VALID,19.4703,VALID,140,VALID,0,
2013-11-04, 03:26:04,VALID,916.251,VALID,0,VALID,97.3891,VALID,0,VALID,19.4898,VALID,134,VALID,0,
2013-11-04, 03:27:04,VALID,916.25,VALID,0,VALID,97.4044,VALID,0,VALID,19.4703,VALID,131,VALID,0,
2013-11-04, 03:28:04,VALID,916.242,VALID,0,VALID,97.3815,VALID,0,VALID,19.4703,VALID,133,VALID,0,
2013-11-04, 03:29:04,VALID,916.24,VALID,0,VALID,97.3891,VALID,0,VALID,19.4688,VALID,116,VALID,0,
2013-11-04, 03:30:04,VALID,916.218,VALID,0,VALID,97.3891,VALID,0,VALID,19.4688,VALID,155,VALID,0,
2013-11-04, 03:31:04,VALID,916.2,VALID,0,VALID,97.3739,VALID,0,VALID,19.5093,VALID,137,VALID,0,
2013-11-04, 03:32:04,VALID,916.184,VALID,0,VALID,97.3815,VALID,0,VALID,19.4898,VALID,137,VALID,0,
2013-11-04, 03:33:04,VALID,916.177,VALID,0,VALID,97.3739,VALID,0,VALID,19.5093,VALID,142,VALID,0,
2013-11-04, 03:34:04,VALID,916.15,VALID,0,VALID,97.3586,VALID,0,VALID,19.5093,VALID,138,VALID,0,
2013-11-04, 03:35:04,VALID,916.132,VALID,0,VALID,97.3891,VALID,0,VALID,19.5093,VALID,139,VALID,0,
2013-11-04, 03:36:04,VALID,916.097,VALID,0,VALID,97.3815,VALID,0,VALID,19.4898,VALID,140,VALID,0,
2013-11-04, 03:37:04,VALID,916.111,VALID,0,VALID,97.3968,VALID,0,VALID,19.4688,VALID,164,VALID,0,
2013-11-04, 03:38:04,VALID,916.084,VALID,0,VALID,97.3891,VALID,0,VALID,19.4703,VALID,164,VALID,0,
2013-11-04, 03:39:04,VALID,916.069,VALID,0,VALID,97.3891,VALID,0,VALID,19.4493,VALID,138,VALID,0,
2013-11-04, 03:40:04,VALID,916.053,VALID,0,VALID,97.4044,VALID,0,VALID,19.4493,VALID,154,VALID,0,
2013-11-04, 03:41:04,VALID,916.033,VALID,0,VALID,97.4044,VALID,0,VALID,19.4493,VALID,163,VALID,0,
2013-11-04, 03:42:04,VALID,916.032,VALID,0,VALID,97.3815,VALID,0,VALID,19.4898,VALID,156,VALID,0,
2013-11-04, 03:43:04,VALID,916.033,VALID,0,VALID,97.3968,VALID,0,VALID,19.4688,VALID,156,VALID,0,
2013-11-04, 03:44:04,VALID,915.987,VALID,0,VALID,97.3815,VALID,0,VALID,19.5078,VALID,169,VALID,0,
2013-11-04, 03:45:04,VALID,916.027,VALID,0,VALID,97.3739,VALID,0,VALID,19.5288,VALID,145,VALID,0,
2013-11-04, 03:46:04,VALID,916.018,VALID,0,VALID,97.3739,VALID,0,VALID,19.5678,VALID,142,VALID,0,
2013-11-04, 03:47:04,VALID,916.002,VALID,0,VALID,97.3815,VALID,0,VALID,19.5858,VALID,141,VALID,0,
2013-11-04, 03:48:04,VALID,916.005,VALID,0,VALID,97.3663,VALID,0,VALID,19.6053,VALID,141,VALID,0,
2013-11-04, 03:49:04,VALID,915.986,VALID,0,VALID,97.3663,VALID,0,VALID,19.6248,VALID,147,VALID,0,
2013-11-04, 03:50:04,VALID,915.96,VALID,0,VALID,97.3663,VALID,0,VALID,19.6443,VALID,154,VALID,0,
2013-11-04, 03:51:04,VALID,915.944,VALID,0,VALID,97.3663,VALID,0,VALID,19.6248,VALID,150,VALID,0,
2013-11-04, 03:52:04,VALID,915.94,VALID,0,VALID,97.3586,VALID,0,VALID,19.6458,VALID,143,VALID,0,
2013-11-04, 03:53:04,VALID,915.937,VALID,0,VALID,97.3586,VALID,0,VALID,19.6443,VALID,149,VALID,0,
2013-11-04, 03:54:04,VALID,915.928,VALID,0,VALID,97.351,VALID,0,VALID,19.6848,VALID,139,VALID,0,
2013-11-04, 03:55:04,VALID,915.922,VALID,0,VALID,97.351,VALID,0,VALID,19.6653,VALID,125,VALID,0,
2013-11-04, 03:56:04,VALID,915.903,VALID,0,VALID,97.3663,VALID,0,VALID,19.6248,VALID,135,VALID,0,
2013-11-04, 03:57:04,VALID,915.886,VALID,0,VALID,97.3663,VALID,0,VALID,19.6458,VALID,133,VALID,0,
2013-11-04, 03:58:04,VALID,915.905,VALID,0,VALID,97.3586,VALID,0,VALID,19.6653,VALID,144,VALID,0,